User: anonymous   Login
Location: Unspecified
(0.0000°N, 0.0000°E)
Time: 17:02:28
(UTC+01:00)
Language:

Cosmos 2279 Rocket - Orbit

View from above orbital plane
View from above orbital plane
View from above satellite
View from above satellite

Ground track
Ground track

The orbit data is extracted from the following two-line orbital elements,

1 23093U 94024B   17081.87392521 +.00000033 +00000-0 +18059-4 0  9993
2 23093 082.9501 178.6888 0008958 241.2188 118.8070 13.77719615619307
Epoch (UTC): 22 March 2017 20:58:27
Eccentricity: 0.0008958
inclination: 82.9501°
perigee height: 965 km
apogee height: 978 km
right ascension of ascending node: 178.6888°
argument of perigee: 241.2188°
revolutions per day: 13.77719615
mean anomaly at epoch: 118.8070°
orbit number at epoch: 61930

The dashed part of the orbit path shows where the satellite is in the earth's shadow,  

DLR